FENGYUN 1C DEB

Satellite information

Favourite Embed

Satellite Type and Status

DEBRISIN ORBIT

Key statistics

Satellite FENGYUN 1C DEB at a glance.

Uptime

9675

Days in orbit

Revolutions

≈ 13.6

Per day

Orbit

SSO

Sun Synchronous Orbit

Inclination

98.8

Latest

Satellite identification and parameters

Extended collection of information and parameters for FENGYUN 1C DEB.

Object identification

Identified? True

Debris? True

Object name: FENGYUN 1C DEB

International designator: 1999-025ASW

Object number (NORAD): 30736

Object ID (CCSDS): 30736

Country: PEOPLES REPUBLIC OF CHINA (PRC)

Current information (Y/N): Y

RCS size: SMALL

Orbital parameters

Period: 105.773 minutes

Inclination: 98.786 deg

SMA: 7408.719 km

Apoapsis: 1240.219 km

Periapsis: 820.95 km

RAAN: 343.9832 deg

Eccentricy: 0.02829561

Argument of periapsis: 171.7106 deg

Mean anomaly: 346.8347 deg

Mean motion: 13.61407188 rev/day

Mean motion (dot): 0.00002459 rev/day2

B* drag term: 0.0025045213 1/REarth

Two-line elements (TLE)

Creation date: Oct. 28, 2025, 7:11 p.m.

Reference frame: TEME

Reference center: EARTH

Epoch: Oct. 28, 2025, 1:54 p.m. UTC

TLE line 0: 0 FENGYUN 1C DEB

TLE line 1: 1 30736U 99025ASW 25301.57973814 .00002459 00000-0 25045-2 0 9997

TLE line 2: 2 30736 98.7860 343.9832 0282956 171.7106 346.8347 13.61407188922384

Live tracking on map

Real-time ground track for satellite FENGYUN 1C DEB.

In-orbit conjunctions

A list of the most updated potential collisions computed for object FENGYUN 1C DEB.

Target Orbit TCA Probability of collision Miss distance Type
METEOR 1-19 LEO 2025-01-25 17:31:10 0.0003757428 126.0 (m) PAYLOAD
BREEZE-KM R/B LEO 2024-09-24 17:52:59 0.0001675708 231.0 (m) ROCKET BODY

Associated space launch

Chinese polar orbiting meteorological satellite

FENGYUN 1C DEB was lifted into orbit during the mission ‘Long March 4B | Feng Yun 1C’, on board a Long March 4B space rocket.

The launch took place on May 10, 1999, 1:33 a.m. from Launch Complex 7.

For more information about the launch, click the button.

Launch to space Long March 4B | Feng Yun 1C
Long March 4B | Feng Yun 1C

Agency: N/A

Status: Launch Successful

Launch date: May 10, 1999, 1:33 a.m. UTC

Rocket: Long March 4B

Launch pad: Launch Complex 7

Location: Taiyuan Satellite Launch Center, People's Republic of China

...

Latest news about this satellite

There are no fresh news available about this satellite. Check back as we update our databases every day.


Newsletter sign-up

Weekly statistics, charts and insights to help you stay on top of the space industry.